EAN695 DNYO-DNCA

Flight info

Callsign EAN695
Flight time N/A
Altitude 24000
Route XUVPI DCT MOBDA UQ589 AKLIS
Aircraft PC12/L-SDFGRWY/S

Departure

Time 2026-04-23 23:18
Airport Yola Airport (DNYO)

Arrival

Time N/A
Airport Margaret Ekpo International Airport (DNCA)
Time Latitude Longitude Altitude Speed Heading
2026-04-23 23:08 9.26541 12.42686 593 ft 0 kts 12°
2026-04-23 23:16 9.26557 12.42699 583 ft 7 kts 41°
2026-04-23 23:16 9.26651 12.42704 587 ft 22 kts 353°
2026-04-23 23:16 9.26796 12.42691 587 ft 10 kts 57°
2026-04-23 23:17 9.26817 12.42790 588 ft 20 kts 81°
2026-04-23 23:17 9.26740 12.42878 590 ft 25 kts 169°
2026-04-23 23:17 9.26434 12.42928 590 ft 69 kts 171°
2026-04-23 23:17 9.25810 12.43032 591 ft 110 kts 170°
2026-04-23 23:18 9.24997 12.43168 784 ft 123 kts 171°
2026-04-23 23:18 9.24096 12.43327 1077 ft 139 kts 169°
2026-04-23 23:18 9.23170 12.43096 1499 ft 143 kts 221°
2026-04-23 23:18 9.22498 12.42362 1961 ft 141 kts 220°
2026-04-23 23:19 9.21663 12.41858 2439 ft 140 kts 198°
2026-04-23 23:19 9.20718 12.41623 2922 ft 140 kts 192°
2026-04-23 23:19 9.19744 12.41421 3332 ft 145 kts 191°
2026-04-23 23:19 9.18744 12.41225 3895 ft 147 kts 189°
2026-04-23 23:20 9.17732 12.41037 4405 ft 148 kts 191°
2026-04-23 23:20 9.16717 12.40834 4971 ft 150 kts 190°
2026-04-23 23:20 9.15688 12.40637 5518 ft 151 kts 189°
2026-04-23 23:20 9.14640 12.40440 6030 ft 154 kts 189°
2026-04-23 23:21 9.13574 12.40235 6515 ft 157 kts 189°
2026-04-23 23:21 9.12500 12.40031 6994 ft 161 kts 189°
2026-04-23 23:21 9.11389 12.39821 7499 ft 164 kts 189°
2026-04-23 23:21 9.10265 12.39605 8031 ft 166 kts 188°
2026-04-23 23:22 9.09120 12.39385 8588 ft 168 kts 189°
2026-04-23 23:22 9.07960 12.39164 9120 ft 171 kts 188°
2026-04-23 23:22 9.06788 12.38940 9634 ft 173 kts 189°
2026-04-23 23:22 9.05594 12.38712 10097 ft 176 kts 189°
2026-04-23 23:23 9.04389 12.38482 10589 ft 177 kts 189°
2026-04-23 23:23 9.03174 12.38250 11068 ft 178 kts 189°
2026-04-23 23:23 9.01949 12.38015 11566 ft 179 kts 189°
2026-04-23 23:23 9.00722 12.37781 12032 ft 181 kts 189°
2026-04-23 23:24 8.99483 12.37545 12499 ft 182 kts 189°
2026-04-23 23:24 8.98251 12.37310 12976 ft 183 kts 189°
2026-04-23 23:24 8.96994 12.37070 13460 ft 185 kts 190°
2026-04-23 23:24 8.95725 12.36828 13910 ft 186 kts 190°
2026-04-23 23:25 8.94451 12.36585 14336 ft 187 kts 191°
2026-04-23 23:25 8.93161 12.36334 14763 ft 188 kts 191°
2026-04-23 23:25 8.92305 12.36170 15050 ft 189 kts 191°
2026-04-23 23:25 8.91012 12.35925 15473 ft 190 kts 191°
2026-04-23 23:26 8.89703 12.35675 15910 ft 192 kts 191°
2026-04-23 23:26 8.88391 12.35425 16331 ft 193 kts 191°
2026-04-23 23:26 8.87066 12.35173 16771 ft 194 kts 191°
2026-04-23 23:26 8.85737 12.34919 17190 ft 195 kts 191°
2026-04-23 23:27 8.84398 12.34663 17644 ft 196 kts 191°
2026-04-23 23:27 8.83050 12.34406 18077 ft 197 kts 192°
2026-04-23 23:27 8.81698 12.34149 18454 ft 198 kts 192°
2026-04-23 23:27 8.80385 12.33743 18827 ft 197 kts 211°
2026-04-23 23:28 8.79329 12.32878 19201 ft 196 kts 232°
2026-04-23 23:28 8.78621 12.31712 19575 ft 194 kts 244°
2026-04-23 23:28 8.77984 12.30520 19896 ft 200 kts 243°
2026-04-23 23:28 8.77286 12.29223 19923 ft 219 kts 243°
2026-04-23 23:29 8.76534 12.27818 19968 ft 235 kts 243°
2026-04-23 23:29 8.75736 12.26329 20002 ft 246 kts 243°
2026-04-23 23:29 8.74904 12.24778 20027 ft 254 kts 243°
2026-04-23 23:29 8.74052 12.23190 20047 ft 260 kts 243°
2026-04-23 23:30 8.73181 12.21568 20065 ft 264 kts 242°
2026-04-23 23:30 8.72300 12.19925 20079 ft 267 kts 243°
2026-04-23 23:30 8.71410 12.18265 20087 ft 269 kts 242°
2026-04-23 23:30 8.70516 12.16601 20090 ft 270 kts 243°
2026-04-23 23:31 8.69617 12.14927 20101 ft 271 kts 243°
2026-04-23 23:31 8.68718 12.13253 20109 ft 271 kts 243°
2026-04-23 23:31 8.67816 12.11573 20111 ft 272 kts 243°
2026-04-23 23:31 8.66914 12.09895 20118 ft 272 kts 243°
2026-04-23 23:32 8.66018 12.08227 20273 ft 266 kts 242°
2026-04-23 23:32 8.65153 12.06619 20455 ft 262 kts 242°
2026-04-23 23:32 8.64288 12.05008 20643 ft 259 kts 242°
2026-04-23 23:32 8.63432 12.03415 20833 ft 257 kts 242°
2026-04-23 23:33 8.62584 12.01838 21020 ft 255 kts 242°
2026-04-23 23:33 8.61737 12.00264 21213 ft 254 kts 242°
2026-04-23 23:33 8.60893 11.98691 21407 ft 254 kts 242°
2026-04-23 23:33 8.60051 11.97127 21600 ft 253 kts 241°
2026-04-23 23:34 8.59209 11.95565 21803 ft 253 kts 241°
2026-04-23 23:34 8.58372 11.94005 21999 ft 253 kts 241°
2026-04-23 23:34 8.57531 11.92442 22201 ft 253 kts 241°
2026-04-23 23:34 8.56691 11.90880 22402 ft 252 kts 241°
2026-04-23 23:35 8.55854 11.89325 22608 ft 252 kts 241°
2026-04-23 23:35 8.55018 11.87772 22815 ft 252 kts 241°
2026-04-23 23:35 8.54178 11.86210 23016 ft 253 kts 241°
2026-04-23 23:35 8.53340 11.84652 23220 ft 252 kts 241°
2026-04-23 23:36 8.52500 11.83092 23424 ft 253 kts 241°
2026-04-23 23:36 8.51671 11.81552 23601 ft 253 kts 241°
2026-04-23 23:36 8.50831 11.79993 23769 ft 253 kts 241°
2026-04-23 23:36 8.49987 11.78424 23849 ft 257 kts 241°
2026-04-23 23:37 8.49120 11.76814 23858 ft 263 kts 241°
2026-04-23 23:37 8.48239 11.75177 23865 ft 267 kts 241°
2026-04-23 23:37 8.47344 11.73517 23871 ft 270 kts 241°
2026-04-23 23:37 8.46440 11.71838 23865 ft 273 kts 241°
2026-04-23 23:38 8.45533 11.70154 23868 ft 274 kts 241°
2026-04-23 23:38 8.44619 11.68458 23863 ft 275 kts 241°
2026-04-23 23:38 8.43705 11.66761 23864 ft 275 kts 241°
2026-04-23 23:38 8.42789 11.65061 23864 ft 276 kts 241°
2026-04-23 23:39 8.41870 11.63356 23865 ft 277 kts 241°
2026-04-23 23:39 8.40947 11.61644 23864 ft 277 kts 241°
2026-04-23 23:39 8.40028 11.59939 23868 ft 277 kts 241°
2026-04-23 23:39 8.39104 11.58227 23860 ft 277 kts 241°
2026-04-23 23:40 8.38192 11.56536 23859 ft 277 kts 241°
2026-04-23 23:40 8.37271 11.54828 23856 ft 278 kts 241°
2026-04-23 23:40 8.36345 11.53112 23853 ft 278 kts 241°
2026-04-23 23:40 8.35423 11.51402 23852 ft 277 kts 241°
2026-04-23 23:41 8.34499 11.49689 23854 ft 278 kts 241°
2026-04-23 23:41 8.33573 11.47973 23849 ft 278 kts 241°
2026-04-23 23:41 8.32646 11.46256 23850 ft 278 kts 241°
2026-04-23 23:41 8.31720 11.44541 23849 ft 278 kts 241°
2026-04-23 23:42 8.30791 11.42820 23848 ft 279 kts 241°
2026-04-23 23:42 8.29864 11.41104 23845 ft 279 kts 241°
2026-04-23 23:42 8.28937 11.39386 23848 ft 279 kts 241°
2026-04-23 23:42 8.28020 11.37688 23844 ft 279 kts 241°
2026-04-23 23:43 8.27090 11.35966 23842 ft 278 kts 241°
2026-04-23 23:43 8.26163 11.34249 23840 ft 278 kts 241°
2026-04-23 23:43 8.25236 11.32534 23837 ft 278 kts 241°
2026-04-23 23:43 8.24310 11.30821 23839 ft 278 kts 241°
2026-04-23 23:44 8.23383 11.29105 23839 ft 278 kts 241°
2026-04-23 23:44 8.22455 11.27389 23839 ft 278 kts 241°
2026-04-23 23:44 8.21528 11.25675 23836 ft 278 kts 241°
2026-04-23 23:44 8.20601 11.23958 23834 ft 278 kts 241°
2026-04-23 23:45 8.19673 11.22240 23838 ft 278 kts 241°
2026-04-23 23:45 8.18754 11.20542 23836 ft 278 kts 241°
2026-04-23 23:45 8.17823 11.18821 23836 ft 278 kts 241°
2026-04-23 23:45 8.16898 11.17109 23837 ft 277 kts 241°
2026-04-23 23:46 8.15973 11.15400 23837 ft 277 kts 241°
2026-04-23 23:46 8.15050 11.13695 23830 ft 278 kts 241°
2026-04-23 23:46 8.14119 11.11976 23830 ft 278 kts 241°
2026-04-23 23:46 8.13195 11.10265 23832 ft 278 kts 241°
2026-04-23 23:47 8.12268 11.08553 23833 ft 278 kts 241°
2026-04-23 23:47 8.11340 11.06839 23829 ft 278 kts 241°
2026-04-23 23:47 8.10411 11.05124 23832 ft 278 kts 241°
2026-04-23 23:47 8.09494 11.03428 23830 ft 278 kts 241°
2026-04-23 23:48 8.08567 11.01717 23830 ft 278 kts 241°
2026-04-23 23:48 8.07640 11.00005 23828 ft 278 kts 241°
2026-04-23 23:48 8.06713 10.98294 23829 ft 278 kts 241°
2026-04-23 23:48 8.05785 10.96581 23830 ft 278 kts 241°
2026-04-23 23:49 8.03928 10.93156 23830 ft 278 kts 240°
2026-04-23 23:49 8.02995 10.91442 23831 ft 278 kts 240°
2026-04-23 23:49 8.02068 10.89728 23832 ft 278 kts 240°
2026-04-23 23:50 8.01153 10.88037 23830 ft 278 kts 240°
2026-04-23 23:50 8.00225 10.86325 23831 ft 278 kts 240°
2026-04-23 23:50 7.99295 10.84611 23836 ft 278 kts 240°
2026-04-23 23:50 7.98365 10.82896 23835 ft 278 kts 240°
2026-04-23 23:51 7.97434 10.81179 23834 ft 278 kts 240°
2026-04-23 23:51 7.96506 10.79468 23832 ft 278 kts 240°
2026-04-23 23:51 7.95578 10.77757 23834 ft 278 kts 240°
2026-04-23 23:51 7.94650 10.76046 23838 ft 278 kts 240°
2026-04-23 23:52 7.93720 10.74331 23835 ft 278 kts 240°
2026-04-23 23:52 7.92792 10.72622 23838 ft 278 kts 240°
2026-04-23 23:52 7.91863 10.70909 23837 ft 278 kts 240°
2026-04-23 23:52 7.90935 10.69198 23837 ft 278 kts 240°
2026-04-23 23:53 7.90005 10.67486 23839 ft 278 kts 240°
2026-04-23 23:53 7.89077 10.65777 23838 ft 278 kts 240°
2026-04-23 23:53 7.88158 10.64085 23841 ft 278 kts 240°
2026-04-23 23:53 7.87230 10.62374 23838 ft 278 kts 240°
2026-04-23 23:54 7.86304 10.60669 23838 ft 277 kts 240°
2026-04-23 23:54 7.85377 10.58963 23837 ft 277 kts 240°
2026-04-23 23:54 7.84452 10.57259 23838 ft 277 kts 240°
2026-04-23 23:54 7.83517 10.55538 23839 ft 277 kts 240°
2026-04-23 23:55 7.82593 10.53839 23835 ft 276 kts 240°
2026-04-23 23:55 7.81668 10.52136 23835 ft 276 kts 240°
2026-04-23 23:55 7.80759 10.50462 23836 ft 276 kts 240°
2026-04-23 23:55 7.79836 10.48764 23838 ft 276 kts 240°
2026-04-23 23:56 7.78914 10.47068 23839 ft 276 kts 240°
2026-04-23 23:56 7.77991 10.45370 23833 ft 275 kts 240°
2026-04-23 23:56 7.77071 10.43677 23834 ft 275 kts 240°
2026-04-23 23:56 7.76153 10.41988 23832 ft 275 kts 240°
2026-04-23 23:57 7.75232 10.40295 23835 ft 276 kts 240°
2026-04-23 23:57 7.74309 10.38600 23831 ft 276 kts 240°
2026-04-23 23:57 7.73387 10.36906 23833 ft 275 kts 240°
2026-04-23 23:57 7.72466 10.35209 23834 ft 275 kts 240°
2026-04-23 23:58 7.71547 10.33519 23832 ft 274 kts 240°
2026-04-23 23:58 7.70641 10.31855 23832 ft 275 kts 240°
2026-04-23 23:58 7.69720 10.30162 23832 ft 275 kts 240°
2026-04-23 23:58 7.68803 10.28476 23829 ft 274 kts 240°
2026-04-23 23:59 7.67888 10.26794 23832 ft 274 kts 240°
2026-04-23 23:59 7.66969 10.25107 23828 ft 274 kts 240°
2026-04-23 23:59 7.66054 10.23424 23828 ft 273 kts 240°
2026-04-23 23:59 7.65135 10.21736 23829 ft 274 kts 240°
2026-04-24 00:00 7.64228 10.20070 23830 ft 274 kts 240°
2026-04-24 00:00 7.63311 10.18386 23830 ft 274 kts 240°
2026-04-24 00:00 7.62395 10.16704 23825 ft 274 kts 240°
2026-04-24 00:00 7.61483 10.15029 23827 ft 274 kts 240°
2026-04-24 00:01 7.60560 10.13335 23827 ft 273 kts 240°
2026-04-24 00:01 7.59644 10.11654 23827 ft 274 kts 240°
2026-04-24 00:01 7.58729 10.09974 23833 ft 273 kts 240°
2026-04-24 00:01 7.57815 10.08295 23833 ft 273 kts 240°
2026-04-24 00:02 7.56900 10.06616 23832 ft 273 kts 240°
2026-04-24 00:02 7.55982 10.04935 23831 ft 273 kts 240°
2026-04-24 00:02 7.55105 10.03334 23832 ft 273 kts 240°
2026-04-24 00:02 7.54189 10.01658 23835 ft 273 kts 240°
2026-04-24 00:03 7.53272 9.99979 23832 ft 273 kts 240°
2026-04-24 00:03 7.52356 9.98304 23833 ft 273 kts 240°
2026-04-24 00:03 7.51439 9.96626 23836 ft 273 kts 240°
2026-04-24 00:03 7.50520 9.94946 23836 ft 273 kts 240°
2026-04-24 00:04 7.49601 9.93267 23833 ft 273 kts 240°
2026-04-24 00:04 7.48684 9.91589 23834 ft 273 kts 240°
2026-04-24 00:04 7.47768 9.89914 23837 ft 273 kts 240°
2026-04-24 00:04 7.46852 9.88240 23833 ft 273 kts 240°
2026-04-24 00:05 7.45933 9.86560 23838 ft 273 kts 240°
2026-04-24 00:05 7.45016 9.84884 23840 ft 273 kts 240°
2026-04-24 00:05 7.44098 9.83206 23840 ft 273 kts 240°
2026-04-24 00:05 7.43178 9.81526 23839 ft 274 kts 240°
2026-04-24 00:06 7.42259 9.79847 23841 ft 274 kts 240°
2026-04-24 00:06 7.41338 9.78166 23844 ft 273 kts 240°
2026-04-24 00:06 7.40420 9.76489 23839 ft 273 kts 240°
2026-04-24 00:06 7.39513 9.74833 23844 ft 273 kts 240°
2026-04-24 00:07 7.38596 9.73156 23845 ft 274 kts 240°
2026-04-24 00:07 7.37674 9.71473 23845 ft 273 kts 240°
2026-04-24 00:07 7.36756 9.69796 23846 ft 273 kts 240°
2026-04-24 00:07 7.35837 9.68120 23845 ft 273 kts 240°
2026-04-24 00:08 7.34913 9.66434 23846 ft 274 kts 240°
2026-04-24 00:08 7.33992 9.64752 23848 ft 273 kts 240°
2026-04-24 00:08 7.33082 9.63091 23848 ft 274 kts 240°
2026-04-24 00:08 7.32161 9.61411 23847 ft 274 kts 240°
2026-04-24 00:09 7.31242 9.59734 23847 ft 274 kts 240°
2026-04-24 00:09 7.30321 9.58054 23848 ft 274 kts 240°
2026-04-24 00:09 7.29399 9.56372 23847 ft 274 kts 240°
2026-04-24 00:09 7.28476 9.54689 23848 ft 274 kts 240°
2026-04-24 00:10 7.27552 9.53004 23848 ft 274 kts 240°
2026-04-24 00:10 7.26630 9.51322 23848 ft 274 kts 240°
2026-04-24 00:10 7.25706 9.49637 23849 ft 275 kts 240°
2026-04-24 00:10 7.24783 9.47954 23851 ft 275 kts 240°
2026-04-24 00:11 7.23857 9.46266 23851 ft 274 kts 240°
2026-04-24 00:11 7.22934 9.44585 23851 ft 274 kts 240°
2026-04-24 00:11 7.22011 9.42903 23852 ft 274 kts 240°
2026-04-24 00:11 7.21101 9.41245 23850 ft 274 kts 240°
2026-04-24 00:12 7.20169 9.39564 23848 ft 274 kts 237°
2026-04-24 00:12 7.18841 9.38222 23843 ft 273 kts 211°
2026-04-24 00:12 7.17081 9.37502 23852 ft 273 kts 197°
2026-04-24 00:12 7.15278 9.36907 23858 ft 273 kts 200°
2026-04-24 00:13 7.13532 9.36148 23858 ft 273 kts 206°
2026-04-24 00:13 7.11830 9.35289 23858 ft 273 kts 206°
2026-04-24 00:13 7.10697 9.34734 23857 ft 274 kts 205°
2026-04-24 00:13 7.08971 9.33930 23857 ft 274 kts 204°
2026-04-24 00:14 7.07231 9.33129 23857 ft 275 kts 205°
2026-04-24 00:14 7.05498 9.32315 23854 ft 274 kts 205°
2026-04-24 00:14 7.03774 9.31502 23857 ft 274 kts 205°
2026-04-24 00:14 7.02048 9.30691 23859 ft 273 kts 205°
2026-04-24 00:15 7.00321 9.29883 23857 ft 273 kts 205°
2026-04-24 00:15 6.98600 9.29075 23858 ft 274 kts 205°
2026-04-24 00:15 6.96873 9.28265 23859 ft 274 kts 205°
2026-04-24 00:15 6.95149 9.27456 23858 ft 273 kts 205°
2026-04-24 00:16 6.93447 9.26658 23860 ft 273 kts 205°
2026-04-24 00:16 6.91717 9.25847 23861 ft 273 kts 205°
2026-04-24 00:16 6.90011 9.25047 23859 ft 273 kts 205°
2026-04-24 00:16 6.88288 9.24239 23859 ft 273 kts 204°
2026-04-24 00:17 6.86566 9.23432 23864 ft 274 kts 204°
2026-04-24 00:17 6.84835 9.22621 23866 ft 274 kts 204°
2026-04-24 00:17 6.83108 9.21811 23864 ft 274 kts 204°
2026-04-24 00:17 6.81403 9.21011 23866 ft 275 kts 204°
2026-04-24 00:18 6.79667 9.20198 23866 ft 275 kts 204°
2026-04-24 00:18 6.77930 9.19384 23869 ft 275 kts 204°
2026-04-24 00:18 6.76197 9.18572 23871 ft 274 kts 204°
2026-04-24 00:18 6.74470 9.17762 23871 ft 274 kts 204°
2026-04-24 00:19 6.72738 9.16951 23873 ft 275 kts 204°
2026-04-24 00:19 6.71005 9.16139 23872 ft 275 kts 204°
2026-04-24 00:19 6.69276 9.15329 23874 ft 275 kts 204°
2026-04-24 00:19 6.67543 9.14517 23874 ft 274 kts 204°
2026-04-24 00:20 6.65817 9.13709 23874 ft 274 kts 204°
2026-04-24 00:20 6.64101 9.12906 23878 ft 274 kts 204°
2026-04-24 00:20 6.62372 9.12096 23879 ft 275 kts 204°
2026-04-24 00:20 6.60640 9.11285 23879 ft 275 kts 204°
2026-04-24 00:21 6.58905 9.10473 23879 ft 275 kts 204°
2026-04-24 00:21 6.57170 9.09660 23883 ft 275 kts 204°
2026-04-24 00:21 6.55434 9.08847 23881 ft 275 kts 204°
2026-04-24 00:21 6.53695 9.08033 23882 ft 275 kts 204°
2026-04-24 00:22 6.51959 9.07220 23882 ft 275 kts 204°
2026-04-24 00:22 6.50222 9.06407 23882 ft 276 kts 204°
2026-04-24 00:22 6.48479 9.05591 23886 ft 276 kts 204°
2026-04-24 00:22 6.46741 9.04779 23881 ft 276 kts 204°
2026-04-24 00:23 6.45004 9.03966 23885 ft 276 kts 204°
2026-04-24 00:23 6.43265 9.03152 23883 ft 276 kts 204°
2026-04-24 00:23 6.41527 9.02339 23888 ft 276 kts 204°
2026-04-24 00:23 6.39805 9.01533 23884 ft 276 kts 204°
2026-04-24 00:24 6.38064 9.00719 23885 ft 276 kts 204°
2026-04-24 00:24 6.36320 8.99903 23886 ft 276 kts 204°
2026-04-24 00:24 6.34577 8.99088 23881 ft 276 kts 204°
2026-04-24 00:24 6.32832 8.98272 23883 ft 277 kts 204°
2026-04-24 00:25 6.31078 8.97452 23883 ft 277 kts 204°
2026-04-24 00:25 6.29336 8.96636 23881 ft 277 kts 204°
2026-04-24 00:25 6.27585 8.95818 23884 ft 277 kts 204°
2026-04-24 00:25 6.25836 8.95000 23880 ft 277 kts 204°
2026-04-24 00:26 6.24088 8.94183 23882 ft 277 kts 204°
2026-04-24 00:26 6.22336 8.93364 23880 ft 277 kts 204°
2026-04-24 00:26 6.20610 8.92557 23881 ft 277 kts 204°
2026-04-24 00:26 6.18863 8.91740 23882 ft 276 kts 204°
2026-04-24 00:27 6.17116 8.90924 23882 ft 277 kts 204°
2026-04-24 00:27 6.15373 8.90109 23883 ft 277 kts 204°
2026-04-24 00:27 6.14189 8.89556 23821 ft 279 kts 204°
2026-04-24 00:28 6.09776 8.87493 22950 ft 284 kts 204°
2026-04-24 00:28 6.07964 8.86647 22567 ft 289 kts 204°
2026-04-24 00:28 6.06127 8.85789 22183 ft 294 kts 204°
2026-04-24 00:28 6.04264 8.84918 21793 ft 296 kts 204°
2026-04-24 00:29 6.02394 8.84045 21400 ft 297 kts 205°
2026-04-24 00:29 6.00518 8.83168 21013 ft 299 kts 205°
2026-04-24 00:29 5.98628 8.82286 20614 ft 299 kts 205°
2026-04-24 00:29 5.96736 8.81402 20216 ft 300 kts 205°
2026-04-24 00:30 5.94841 8.80517 19824 ft 301 kts 205°
2026-04-24 00:30 5.92943 8.79631 19428 ft 301 kts 205°
2026-04-24 00:30 5.91041 8.78743 19033 ft 301 kts 205°